Regional Weather Roundup
Issued by NWS Charleston, SC

Current Version | Previous Version | Graphics & Text | Print | Product List | Glossary On
Versions: 1 2 3 4 5 6 7 8 9 10 11 12 13 14 15 16 17 18 19 20 21 22 23 24 25 26 27 28 29 30 31 32 33 34 35 36 37 38 39 40 41 42 43 44 45 46 47 48 49 50
000
ASUS42 KCHS 282213
RWRCHS

REGIONAL WEATHER ROUNDUP
NATIONAL WEATHER SERVICE CHARLESTON SC
600 PM EDT SUN AUG 28 2016

NOTE: "FAIR" INDICATES FEW OR NO CLOUDS BELOW 12,000 FEET WITH NO
SIGNIFICANT WEATHER AND/OR OBSTRUCTIONS TO VISIBILITY.

NOT ALL STATIONS ARE QUALITY CONTROLLED. USE DATA WITH CAUTION...
ESPECIALLY DEWPOINT OBSERVATIONS.

SCZ027-030-031-034>040-042>050-282300-
...SOUTHEAST SOUTH CAROLINA...

CITY           SKY/WX    TMP DP  RH WIND       PRES   REMARKS
N CHARLESTON   PTSUNNY   80  72  76 E7        30.04F
WATERFRONT PRK   N/A     82  77  84 N15       30.03F HX  90
MOUNT PLEASANT MOCLDY    79  75  89 CALM      30.05F
JOHNS ISLAND   FAIR      82  77  83 N10       30.04F HX  91
PINOPOLIS        N/A     81  75  83 E5        29.99F
MONCKS CORNER  CLOUDY    77  72  83 SE3       30.05F
SUMMERVILLE    MOCLDY    81  73  78 E3        30.06S
BEAUFORT MCAS  CLOUDY    80  75  84 NE10      30.04F THUNDER
BEAUFORT ARPT  FAIR      81  72  74 E8        30.03F
HILTON HEAD IS NOT AVBL
WALTERBORO     CLOUDY    86  77  74 SE8       30.06S HX  97
ALLENDALE      MOCLDY    90  70  51 SE13G18   30.02S HX  95

...SOUTHERN MIDLANDS AND PEE DEE...

CITY           SKY/WX    TMP DP  RH WIND       PRES   REMARKS
GEORGETOWN     FAIR      82  73  74 E12G17    30.06F
KINGSTREE      FAIR      86  70  58 E9        30.06S HX  90
ORANGEBURG     MOSUNNY   89  71  55 SE9G20    30.04F HX  95
BARNWELL       NOT AVBL
AIKEN          FAIR      90  63  40 E7        30.07F HX  90
MANNING        FAIR      84  72  65 E7        30.05F
COLUMBIA       MOSUNNY   93  61  34 E12       30.03F HX  93
SUMTER         MOSUNNY   92  65  39 NE13      30.03S HX  94
FLORENCE       MOSUNNY   90  65  43 E10       30.07S HX  92
MYRTLE BEACH   PTSUNNY   84  70  61 E9        30.08F
N MYRTLE BEACH CLOUDY    85  75  72 NE7       30.06F HX  93

$$

GAZ063-065-086>088-099>101-113>116-118-119-134>141-150-282300-
...SOUTHEAST GEORGIA...

CITY           SKY/WX    TMP DP  RH WIND       PRES   REMARKS
SAVANNAH ARPT  CLOUDY    88  70  55 E10       30.03R HX  93
HUNTER AAF     PTSUNNY   85  75  73 E10       30.00F HX  94
FORT STEWART   CLOUDY    86  68  54 E7        29.99S
STATESBORO     MOSUNNY   89  73  59 E8        30.03R HX  97
SYLVANIA       NOT AVBL
CLAXTON        FAIR      89  74  61 NE13      30.02S HAZE    HX  97

...CSRA...CENTRAL AND FAR SOUTHEAST GEORGIA...

CITY           SKY/WX    TMP DP  RH WIND       PRES   REMARKS
THOMSON        MOSUNNY   93  68  44 MISG      30.08S HX  98
AUGUSTA-BUSH   PTSUNNY   93  65  39 NE6       30.00F HX  95
AUGUSTA-DANIEL SUNNY     95  64  35 E10G17    30.03F HX  97
SWAINSBORO     MOCLDY    93  64  38 E13       30.01F HX  95
VIDALIA        PTSUNNY   91  73  55 E14       30.01R HX 100
EASTMAN        FAIR      98  38  12 E5        30.02S HX  93
HAZLEHURST     FAIR      95  69  42 E8        29.98S HX  99
ALMA           SUNNY     92  63  38 E8G17     29.98F HX  93
WAYCROSS         N/A     92  77  59 SE10G18   30.00R HX 105
JESUP          FAIR      91  73  55 E9        30.00S HX 100
BAXLEY         FAIR      93  72  49 E9        29.99S HX 100
BRUNSWICK      MOSUNNY   88  77  70 E13       30.01F HX 100
SAINT SIMONS   MOSUNNY   86  75  69 E12G21    30.01S HX  95

$$

SCZ027-028-034-036>038-045-046-048>050-GAZ119-141-282300-
...LAKE AND SUPPLEMENTAL COASTAL OBSERVATIONS...

STATION/POSITION TIME  TEMP    WIND        PRES    WAVE   SWELL
                       AIR SEA DIR/SP/G            HT/PER HT/PER/DIR
                 (UTC) (F)     (DEG/KT/KT) (MB)    (FT/S) (FT/S/D)
WINYAH BAY       2045   83      60/ 11     1017.0
LAKE MURRAY      2100   90      50/  4/  8 1016.9F
ACE BASIN NERRS  NOT AVBL
FORT PULASKI     2100   84 86   70/ 14/ 15 1017.3F
SAPELO ISLAND    2100   88      60/ 14     1016.0F

$$

ANZ835-935-AMZ111-154-330-350-352-354-370-450-454-472-282300-
...C-MAN AND BUOY OBSERVATIONS...

STATION/POSITION TIME  TEMP    WIND        PRES    WAVE   SWELL
                       AIR SEA DIR/SP/G            HT/PER HT/PER/DIR
                 (UTC) (F)     (DEG/KT/KT) (MB)    (FT/S) (FT/S/D)
BUOY 41004       2150   85 86   60/ 12/ 14 1016.3F   3/ 8   3/120/ 8
BUOY 41008       2150   84 85   70/ 14/ 17 1015.8F   4/ 9   2/130/ 9
FOLLY BEACH CMAN 2100   84      60/ 15/ 17 1018.0F
CAPERS NEARSHORE 2108   83 84   80/ 16/ 19 1017.1F
FRIPP NEARSHORE  2108   84 86   80/ 14/ 17 1016.6F


STATION/POSITION TIME  TEMP    WIND        PRES    WAVE   SWELL
                       AIR SEA DIR/SP/G            HT/PER HT/PER/DIR
                 (UTC) (F)     (DEG/KT/KT) (MB)    (FT/S) (FT/S/D)
5E ST. MARYS GA  2101      85                N/A     4/ 8
FRYING PAN BUOY  2100   82 84   10/ 10/ 12 1017.4F
BUOY 41025       2150   83 85   60/  8/ 10 1018.2S   3/15   3/15
CAPE LOOKOUT NC  2100   83      40/  9/ 10 1018.3F
BUOY 41002       2150   83 85   40/ 12/ 14 1015.8F   4/15   3/110/15
BUOY 41010       NOT AVBL
ST AUGUSTINE FL  2200   83 86   40/ 15/ 15 1016.1R


$$




USA.gov is the U.S. government's official web portal to all federal, state and local government web resources and services.